Location: Murphys Corner
(39.1062°N, 77.8244°W)
Time: 03:49:29
(UTC+00:00)

N. Korean satellite - Visible Passes

Search period start: 01 February 2023 00:00
Search period end: 11 February 2023 00:00
Orbit: 407 x 443 km, 97.3° (Epoch: 31 January)

Date Brightness Start Highest point End Pass type
(mag) Time Alt. Az. Time Alt. Az. Time Alt. Az.
01 Feb 8.6 09:59:49 10° NE 10:02:34 25° E 10:05:19 10° SSE visible
01 Feb 8.1 11:32:52 10° NW 11:34:36 14° WNW 11:36:20 10° WSW visible
02 Feb 6.3 10:49:08 10° N 10:52:18 52° WNW 10:55:29 10° SSW visible
03 Feb 8.1 10:06:46 10° NNE 10:09:42 32° E 10:12:40 10° SSE visible
03 Feb 8.3 11:40:32 10° NW 11:41:38 11° WNW 11:42:44 10° W visible
04 Feb 6.6 10:56:10 10° N 10:59:15 41° WNW 11:02:21 10° SW visible
05 Feb 7.6 10:13:28 10° NNE 10:16:33 40° E 10:19:40 10° S visible
06 Feb 9.9 09:32:58 10° E 09:33:34 10° E 09:34:11 10° ESE visible
06 Feb 6.9 11:02:58 10° N 11:05:56 33° WNW 11:08:54 10° SW visible
07 Feb 7.1 10:19:58 10° NNE 10:23:09 51° E 10:26:21 10° S visible
08 Feb 9.7 09:38:31 10° ENE 09:40:04 13° E 09:41:37 10° ESE visible
08 Feb 7.2 11:09:31 10° NNW 11:12:20 27° WNW 11:15:10 10° SW visible
09 Feb 6.7 10:26:13 10° NNE 10:29:28 64° E 10:32:43 10° S visible
10 Feb 9.4 09:44:15 10° NE 09:46:17 15° E 09:48:19 10° SE visible
10 Feb 7.5 11:15:50 10° NNW 11:18:28 23° WNW 11:21:08 10° SW visible
